This is the latest recevied weather packets stored in our database for station/object KD8ZLZ-13. If no packets are shown the sender has not sent any weather packets the latest 10 day(s).
| Time | Temp. | Humidity | Pressure | Rain* | Wind** | Luminosity | Snow |
|---|---|---|---|---|---|---|---|
| 1777453664 | 10.56° C | 76% | 1013.9 hPa | 0 mm | - | 0 W/m² | - |
| 1777453064 | 10.56° C | 77% | 1013.9 hPa | 0 mm | - | 0 W/m² | - |
| 1777452464 | 11.11° C | 77% | 1013.6 hPa | 0 mm | - | 0 W/m² | - |
| 1777451864 | 11.11° C | 77% | 1013.6 hPa | 0 mm | - | 0 W/m² | - |
| 1777451264 | 11.11° C | 77% | 1013.6 hPa | 0 mm | - | 0 W/m² | - |
| 1777450664 | 11.11° C | 77% | 1013.6 hPa | 0 mm | - | 0 W/m² | - |
| 1777450064 | 11.11° C | 76% | 1013.6 hPa | 0 mm | - | 0 W/m² | - |
| 1777449464 | 11.67° C | 75% | 1013.2 hPa | 0 mm | - | 0 W/m² | - |
| 1777448864 | 11.67° C | 76% | 1013.6 hPa | 0 mm | - | 0 W/m² | - |
| 1777448264 | 11.67° C | 76% | 1013.6 hPa | 0 mm | - | 0 W/m² | - |
| 1777447664 | 11.11° C | 76% | 1013.6 hPa | 0 mm | - | 0 W/m² | - |
| 1777447064 | 11.11° C | 79% | 1013.9 hPa | 0 mm | - | 0 W/m² | - |
| 1777446464 | 10° C | 83% | 1013.9 hPa | 0 mm | - | 0 W/m² | - |
| 1777445864 | 10° C | 83% | 1013.9 hPa | 0 mm | - | 0 W/m² | - |
| 1777445264 | 9.44° C | 87% | 1013.9 hPa | 0 mm | - | 0 W/m² | - |
| 1777444664 | 9.44° C | 89% | 1013.9 hPa | 0 mm | - | 0 W/m² | - |
| 1777444064 | 9.44° C | 88% | 1014.2 hPa | 0 mm | - | 0 W/m² | - |
| 1777443464 | 9.44° C | 91% | 1014.2 hPa | 0 mm | - | 0 W/m² | - |
| 1777442864 | 9.44° C | 90% | 1014.2 hPa | 0 mm | - | 0 W/m² | - |
| 1777442264 | 10° C | 89% | 1014.2 hPa | 0 mm | - | 0 W/m² | - |
| 1777441664 | 10° C | 88% | 1014.2 hPa | 0 mm | - | 0 W/m² | - |
| 1777441064 | 10° C | 87% | 1014.2 hPa | 0 mm | - | 0 W/m² | - |
| 1777440464 | 10° C | 87% | 1014.6 hPa | 0 mm | - | 0 W/m² | - |
| 1777439864 | 10° C | 90% | 1014.2 hPa | 0 mm | - | 0 W/m² | - |
| 1777439264 | 10° C | 88% | 1013.9 hPa | 0 mm | - | 0 W/m² | - |
* Rain latest hour (hover to see other rain measurements)
** Current wind speed in m/s (hover to see current wind gust speed)